Location: Marsån
(66.4167°N, 22.2833°E)
Time: 11:00:14
(UTC+00:00)

Cosmos 1725 Rocket - Pass Details

Date: 24 February 2024
Orbit: 960 x 991 km, 82.9° (Epoch: 15 April)

Event Time Altitude Azimuth Distance (km) Brightness Sun altitude
Rises 16:49:15 0° 195° (SSW) 3,699 7.3 -9.2°
Reaches altitude 10° 16:51:46 10° 195° (SSW) 2,755 6.6 -9.4°
Maximum altitude 16:58:07 89° 286° (WNW) 1,003 4.1 -10.1°
Drops below altitude 10° 17:04:30 10° 18° (NNE) 2,768 6.2 -10.7°
Sets 17:07:02 0° 18° (NNE) 3,717 6.9 -11.0°
